GEFSCGP_850_meantemp_102.txt.gz
Temperature
16 13 13 14 14 14 15 15 14 15 16 15 14 15 15 16 16 15 15 16 16 16 16 15 15 15 15 15 14 14 13 13 12 11 11 10 10 10 9 9 9 9 8 8
13 13 14 15 14 14 14 14 14 15 16 15 14 14 14 14 15 16 15 15 15 15 15 15 15 15 14 14 14 13 13 12 12 11 11 10 10 10 10 9 9 9 9 8
13 14 15 15 14 14 14 14 14 15 15 15 15 14 14 14 15 15 15 15 15 15 15 15 14 14 14 14 14 13 13 12 12 11 11 11 10 10 10 9 9 9 9 8
13 14 15 15 15 14 14 15 15 15 14 13 14 12 13 14 14 13 13 13 14 14 15 15 14 14 14 14 13 13 12 12 12 11 11 11 11 10 10 10 9 9 9 8
13 14 14 15 15 15 15 16 16 15 14 13 12 13 13 14 13 12 11 12 13 14 15 15 14 14 13 13 13 12 12 12 12 11 11 11 11 10 10 9 9 9 8 8
13 15 15 15 16 15 15 15 14 11 11 12 12 12 12 13 13 13 11 12 13 14 14 14 14 13 13 12 12 12 12 12 12 11 11 11 11 10 10 9 9 9 8 8
14 14 15 15 15 15 14 13 12 12 11 11 12 12 13 14 14 13 12 12 13 13 13 13 13 13 12 12 12 12 12 12 11 11 11 11 10 10 10 9 9 8 8 8
12 13 14 14 14 13 13 13 12 12 11 11 13 12 14 15 14 15 15 13 12 13 13 13 13 13 13 12 12 12 12 12 11 11 11 10 10 10 9 9 8 8 8 7
12 13 14 14 14 14 12 12 13 12 12 12 12 13 14 15 14 13 13 12 11 12 13 14 14 13 13 13 12 12 12 11 11 11 10 10 10 9 9 8 8 7 7 7
13 13 14 14 14 14 13 12 11 11 11 11 12 13 14 15 14 12 11 11 11 12 13 13 14 13 13 13 12 11 11 11 11 10 10 10 9 9 8 8 7 7 7 6
13 12 13 13 13 13 13 13 12 11 10 11 12 13 14 14 13 12 11 12 12 12 13 14 14 13 13 12 11 11 11 10 10 10 10 9 9 8 8 7 7 6 6 6
12 11 11 12 13 13 13 12 12 11 11 10 10 13 14 14 13 12 13 13 13 13 14 14 14 13 12 12 11 11 10 10 10 9 9 9 8 8 7 7 6 6 5 5
13 11 11 12 12 12 12 12 12 12 11 10 10 13 14 14 14 14 14 14 14 13 13 13 13 13 12 12 11 10 10 10 9 9 8 8 8 7 7 6 6 5 5 5
13 11 12 12 12 12 11 12 12 12 11 10 11 13 14 14 14 14 14 15 14 14 13 13 13 12 12 11 11 10 10 9 9 8 8 7 7 7 6 6 5 5 4 4
12 11 11 12 13 12 12 12 12 12 12 11 12 13 14 14 13 14 15 15 14 13 13 13 13 12 12 11 10 10 9 9 8 8 7 7 6 6 5 5 5 4 4 3
11 11 12 13 13 12 12 12 12 12 12 12 12 12 13 14 15 15 15 14 14 14 14 13 13 12 11 11 10 9 9 8 8 7 7 6 6 5 5 4 4 4 3 3
10 11 11 11 12 12 11 12 12 12 12 12 13 14 14 13 12 13 15 15 15 15 15 14 13 12 12 11 10 9 8 8 7 7 6 6 5 5 4 4 3 3 2 2
10 10 9 9 11 10 12 12 13 13 12 12 12 12 13 13 14 15 16 16 15 15 14 13 13 12 11 10 9 9 8 7 7 6 6 5 5 4 4 3 3 2 2 2
10 10 8 8 9 9 11 12 12 12 12 12 12 12 12 13 12 12 14 15 15 15 14 13 12 11 10 9 9 8 7 7 6 6 5 5 4 3 3 3 2 2 1 1
9 9 8 7 8 9 11 12 13 13 12 12 12 11 11 10 10 11 14 14 13 13 12 12 11 10 9 8 8 7 7 6 6 5 4 4 3 3 2 2 2 1 1 0
8 8 8 7 8 8 10 11 12 12 12 13 13 12 11 10 12 13 13 13 12 12 11 10 10 9 8 8 7 6 6 5 5 4 4 3 3 2 2 1 1 1 0 -0
9 8 7 7 7 8 10 10 11 12 13 13 13 13 12 12 12 12 12 12 11 10 10 9 9 8 7 7 6 6 5 5 4 4 3 3 2 2 1 1 1 0 -0 -1
9 10 9 9 10 10 12 13 14 14 14 14 14 14 13 12 12 11 11 10 10 9 9 8 7 7 6 6 5 5 4 4 3 3 3 2 2 1 1 0 0 -0 -1 -1
7 8 8 8 8 9 12 13 13 13 14 14 14 13 13 12 11 10 10 9 8 8 7 7 6 6 5 5 5 4 4 3 3 2 2 2 1 1 0 -0 -1 -1 -1 -2
8 7 7 8 8 9 10 12 13 12 12 12 12 12 12 11 11 10 9 8 7 7 6 6 6 5 5 4 4 3 3 2 2 2 1 1 1 0 -0 -1 -1 -2 -2 -3
6 7 8 9 8 8 10 13 12 12 12 12 12 11 10 10 10 9 8 7 7 6 5 5 5 4 4 3 3 3 2 2 1 1 1 0 0 -0 -1 -1 -1 -2 -3 -3

GEFSCGP_850_meantemp_108.txt.gz
Temperature
14 12 12 12 13 14 14 13 13 13 14 14 12 12 14 15 14 14 15 16 17 18 18 17 17 17 16 16 16 15 15 14 13 12 11 11 10 10 9 9 9 9 9 8
12 12 13 14 13 13 13 13 12 12 13 13 12 12 13 12 13 15 15 16 17 18 17 17 17 16 16 16 15 15 14 14 13 12 11 11 10 10 10 9 9 9 9 8
12 13 13 13 13 12 12 12 12 12 13 13 12 11 12 12 13 14 15 16 17 17 17 17 17 16 16 15 15 15 14 14 13 12 11 11 10 10 10 9 9 9 9 8
12 13 13 13 12 12 12 12 12 13 12 11 12 11 12 12 12 12 13 14 15 16 17 17 16 16 16 15 15 14 14 13 13 12 11 11 11 10 10 10 9 9 9 8
11 12 12 12 13 12 12 13 12 12 11 10 11 11 12 12 12 13 12 14 15 16 16 16 16 16 15 15 14 14 13 13 12 12 11 11 11 10 10 10 9 9 9 8
12 12 12 13 13 13 13 12 11 9 10 10 10 10 11 12 13 13 13 14 14 15 15 15 15 15 14 14 14 13 13 13 12 12 11 11 11 10 10 10 9 9 9 8
11 12 12 13 12 12 12 12 11 11 10 10 10 10 11 13 13 13 13 14 14 14 14 14 14 14 14 14 14 13 13 13 12 12 11 11 11 10 10 10 9 9 9 8
10 11 12 12 12 11 11 12 11 11 10 10 10 9 11 12 12 14 14 14 14 13 13 14 14 14 14 14 14 13 13 13 12 12 11 11 10 10 10 10 9 9 8 8
11 11 12 12 12 12 11 11 12 10 10 10 10 10 10 13 13 12 12 12 12 13 13 13 14 14 14 14 14 13 13 12 12 12 11 11 10 10 10 9 9 8 8 8
11 11 12 12 12 12 11 10 9 10 10 10 10 10 12 14 15 13 12 11 12 12 13 13 13 14 14 14 13 13 12 12 12 11 11 11 10 10 9 9 8 8 8 7
11 11 11 11 11 11 10 10 10 9 9 9 10 11 12 13 13 12 11 13 13 13 13 13 13 14 13 13 13 12 12 12 11 11 11 10 10 9 9 8 8 8 7 7
10 10 10 10 11 11 11 10 10 10 9 8 9 11 13 12 12 11 12 13 14 14 14 14 13 13 13 13 12 12 12 12 11 11 10 10 9 9 9 8 8 7 7 6
11 10 10 10 10 10 10 10 10 10 9 7 8 11 12 12 13 13 14 14 15 14 14 13 13 13 13 13 13 12 12 11 11 10 10 9 9 9 8 8 7 7 6 6
12 9 10 11 10 9 9 10 10 10 10 8 8 11 13 13 13 13 15 15 15 15 14 14 14 14 14 13 13 12 12 11 10 10 10 9 9 8 8 7 7 6 6 5
11 9 9 10 11 10 10 10 10 10 10 10 10 10 13 13 13 14 15 15 15 15 15 15 15 14 14 13 13 12 12 11 10 10 9 9 8 8 7 7 6 6 5 5
9 10 9 10 10 10 10 10 10 10 11 10 10 10 12 13 14 13 14 15 15 16 16 16 16 15 14 14 13 12 11 11 10 9 9 8 8 7 7 6 6 5 5 4
8 9 9 9 10 10 9 10 10 10 9 10 11 12 12 12 11 12 14 15 16 17 17 16 16 16 15 14 13 12 11 10 10 9 8 8 7 7 6 6 5 5 4 4
9 9 8 8 9 9 11 11 11 11 10 10 10 11 12 12 14 15 15 15 16 16 16 16 16 15 14 14 12 11 10 10 9 8 8 7 7 6 6 5 5 4 4 4
8 9 7 7 8 8 9 10 10 10 10 10 11 11 11 12 12 12 15 15 16 16 16 15 15 14 14 13 12 11 10 9 8 8 7 7 6 6 5 5 5 4 3 3
7 8 7 6 8 8 10 11 10 11 11 11 10 11 10 9 10 11 15 15 15 15 15 14 14 14 13 12 11 10 9 8 8 7 7 6 6 5 5 4 4 3 3 2
7 6 7 6 7 8 9 10 10 11 11 12 12 11 10 9 12 14 14 14 14 14 14 13 13 12 12 11 10 9 8 8 7 7 6 6 5 5 4 4 3 3 2 2
8 7 6 6 7 8 9 8 10 11 13 14 13 13 12 13 13 13 13 13 13 13 12 12 12 11 10 10 9 8 8 7 6 6 5 5 5 4 4 3 2 2 2 1
8 9 8 8 9 9 10 11 13 14 14 14 15 15 14 14 13 13 13 13 12 12 11 11 10 10 9 8 8 7 7 6 6 5 5 4 4 3 3 2 2 2 1 1
6 7 7 7 7 8 10 12 13 14 15 15 15 15 14 14 14 13 12 12 11 11 10 10 9 9 8 7 7 6 6 5 5 5 4 4 3 3 2 2 1 1 1 0
6 6 6 7 7 8 10 12 14 14 14 14 14 14 14 13 13 12 12 11 10 10 9 9 8 8 7 6 6 5 5 5 4 4 4 3 3 2 2 1 1 0 -0 -1
5 6 8 8 8 8 10 14 14 13 13 14 13 13 13 12 12 12 11 10 10 9 8 8 7 7 6 6 5 5 4 4 4 3 3 2 2 1 1 1 0 -0 -1 -1

GEFSCGP_850_meantemp_114.txt.gz
Temperature
16 17 17 18 18 19 19 18 18 19 19 17 18 19 20 20 19 19 19 20 19 19 19 18 18 18 18 17 16 16 15 14 13 12 11 11 10 10 10 10 9 9 9 9
16 17 18 19 18 18 18 17 18 18 18 17 18 18 19 20 20 19 19 20 20 19 18 18 18 18 18 17 17 16 15 14 14 13 12 11 10 10 10 10 10 9 9 9
17 18 18 17 17 16 17 17 18 18 18 17 16 18 19 20 19 18 18 18 18 18 18 17 18 18 18 17 17 16 15 14 14 13 12 11 10 10 10 10 10 9 9 9
17 18 16 16 17 17 17 18 17 17 17 17 17 17 19 20 19 20 19 19 18 17 16 16 17 17 17 17 17 16 15 14 13 13 12 11 11 10 10 10 10 10 9 9
16 17 16 16 17 17 17 17 16 16 16 17 17 16 18 19 19 20 21 19 18 16 15 15 16 17 17 17 16 16 15 14 13 12 12 11 11 10 10 10 10 10 9 9
17 16 17 17 17 17 16 15 15 15 16 15 17 17 18 20 20 20 20 19 17 15 14 14 14 15 16 16 16 15 14 14 13 12 12 11 11 11 10 10 10 10 9 9
15 15 15 16 16 15 16 16 15 15 15 16 17 16 18 20 20 19 19 18 17 15 13 13 13 14 15 15 15 15 14 14 13 12 12 11 11 11 11 10 10 10 10 9
15 15 15 15 16 16 16 16 16 16 16 17 15 16 19 20 19 17 16 16 15 14 13 13 13 14 14 15 15 14 14 13 13 12 12 11 11 11 10 10 10 10 10 9
16 16 16 16 16 17 15 16 17 17 16 16 17 17 18 19 19 18 18 16 15 14 13 13 12 13 13 14 14 14 14 13 13 12 12 11 11 11 11 10 10 10 10 9
17 16 15 14 14 16 17 16 15 15 15 15 17 17 18 19 20 20 19 18 16 14 13 12 12 12 13 13 14 13 13 13 13 12 12 11 11 11 10 10 10 10 10 9
17 16 13 13 14 15 14 15 16 16 16 16 16 18 19 19 19 19 19 17 15 14 13 13 12 12 13 13 13 13 13 12 12 12 12 11 11 11 10 10 10 10 9 9
16 16 14 14 15 16 16 16 16 15 15 16 16 18 19 18 18 17 17 16 15 14 14 13 13 13 13 13 13 13 13 12 12 12 11 11 11 10 10 10 10 9 9 9
15 14 13 12 13 13 14 16 16 16 16 16 15 17 19 17 17 16 16 16 15 14 14 13 13 13 13 13 13 12 12 12 12 11 11 11 11 10 10 10 9 9 9 8
15 14 14 14 15 14 14 14 15 15 15 16 16 17 18 18 18 18 17 17 16 15 14 14 14 14 13 13 13 13 12 12 12 11 11 11 10 10 10 9 9 9 8 8
13 13 14 15 15 15 14 14 14 15 16 16 17 17 18 19 19 19 18 17 15 14 15 15 15 14 14 14 13 13 12 12 12 11 11 11 10 10 9 9 9 8 8 7
12 12 13 13 13 14 14 14 15 15 15 16 16 17 18 19 18 18 17 17 15 15 15 16 16 15 15 14 14 13 13 12 12 11 11 10 10 9 9 9 8 8 7 7
11 11 12 12 13 12 12 14 14 15 15 16 16 17 18 17 17 17 17 16 16 15 16 16 16 16 16 15 15 14 13 12 12 11 10 10 9 9 9 8 8 7 7 6
10 11 11 12 11 10 14 16 16 15 15 16 16 17 17 17 17 16 16 16 16 15 15 16 16 16 16 15 14 14 13 12 11 11 10 9 9 9 8 8 7 7 6 6
11 10 10 10 11 12 13 13 14 14 15 16 16 16 16 15 14 15 15 15 15 15 15 16 16 16 15 15 14 13 12 12 11 10 10 9 9 8 8 7 7 6 6 5
10 10 10 9 10 11 14 14 14 14 14 16 16 15 15 14 14 16 16 15 15 15 15 15 15 15 15 14 14 13 12 11 11 10 9 9 8 8 7 7 6 6 5 5
8 9 9 9 11 13 15 13 13 13 15 16 15 15 14 14 15 15 15 15 15 15 15 15 14 14 14 14 13 12 12 11 10 9 8 8 7 7 6 6 5 5 5 4
9 9 9 10 10 12 12 11 14 16 15 14 14 14 14 14 14 14 14 14 14 14 14 14 14 13 13 12 12 11 11 10 9 8 8 7 6 6 5 5 5 4 4 3
10 11 11 11 13 14 12 13 14 14 14 14 14 14 14 13 13 13 13 13 13 13 13 13 13 12 12 11 11 10 10 9 8 7 7 6 6 5 5 5 4 4 3 3
9 10 10 11 12 12 11 12 13 13 14 15 15 15 14 14 14 13 13 13 13 13 12 12 12 11 11 10 10 9 9 8 7 7 6 6 5 5 4 4 4 3 3 2
9 8 10 11 11 11 11 11 12 13 13 14 14 14 14 14 14 13 13 13 12 12 11 11 11 11 10 9 9 8 8 7 7 6 6 5 5 4 4 3 3 3 2 2
8 9 10 11 11 11 13 12 13 13 13 13 13 13 13 14 14 13 13 12 12 11 11 10 10 9 9 8 8 7 7 6 6 6 5 4 4 3 3 3 2 2 1 1

GEFSCGP_850_meantemp_120.txt.gz
Temperature
16 15 15 16 17 18 18 18 18 19 21 19 18 18 19 20 21 20 21 21 21 22 21 21 21 20 19 18 17 16 15 14 13 12 12 11 11 11 10 10 10 10 10 9
16 15 17 18 18 18 18 17 18 19 20 19 18 18 19 19 19 21 21 21 21 21 21 21 21 20 19 18 17 16 15 14 13 13 12 12 12 11 11 10 10 10 10 10
15 16 18 18 18 18 17 17 17 18 18 19 18 17 18 19 20 21 21 21 21 21 21 21 21 20 19 18 17 16 15 14 14 13 12 11 11 10 10 10 10 10 10 10
16 18 18 17 17 18 17 18 18 18 17 16 17 15 17 19 19 19 20 21 21 21 21 21 20 20 19 18 17 16 15 15 14 13 12 11 11 11 11 10 10 10 10 10
16 17 17 17 18 18 17 18 18 17 16 15 16 15 16 19 19 19 19 21 21 21 21 20 20 19 19 18 17 16 15 14 14 13 12 12 11 11 11 10 10 10 10 10
17 18 18 18 18 19 18 18 17 16 15 14 15 15 16 18 19 20 20 21 21 20 20 20 19 19 18 17 16 15 15 14 14 13 12 12 11 11 10 10 10 10 10 10
15 16 18 18 17 18 17 16 14 13 12 13 16 16 16 19 20 20 20 20 20 20 19 19 18 17 17 16 16 15 14 14 14 13 12 12 11 11 11 11 11 10 10 10
14 14 16 17 17 16 16 16 14 13 13 15 16 16 17 20 20 21 21 20 20 19 18 18 17 17 16 16 15 14 14 14 14 13 12 11 11 11 10 11 11 11 11 11
14 15 17 17 17 17 16 15 16 15 15 14 16 17 19 20 19 19 19 19 19 18 18 17 16 16 15 15 14 14 13 13 13 13 12 11 11 10 10 10 10 10 10 10
15 15 16 16 16 16 17 16 15 14 13 12 14 16 17 18 18 18 18 18 19 18 17 16 16 15 14 14 13 13 13 13 13 12 12 11 11 10 10 10 10 10 10 10
14 14 15 15 15 15 15 15 15 14 13 13 13 15 19 18 19 18 18 19 19 18 17 16 15 14 14 13 12 12 12 12 12 12 11 11 11 10 10 10 10 10 10 10
13 13 13 14 15 16 16 15 15 13 13 14 14 15 20 19 19 18 18 19 18 18 17 16 15 14 13 13 12 12 11 11 11 11 11 11 10 10 10 10 10 10 10 10
12 11 11 12 12 14 14 15 16 15 14 14 14 15 18 18 18 19 19 18 18 17 16 16 15 14 13 13 12 11 11 11 11 11 11 10 10 10 10 10 10 10 10 10
12 11 11 11 12 12 13 14 15 15 14 13 14 16 17 18 18 18 18 19 18 17 16 15 15 14 13 12 12 11 11 11 11 11 10 10 10 10 10 10 10 10 10 10
10 10 11 12 13 14 13 13 14 14 14 14 14 15 17 17 17 18 19 19 18 17 16 16 15 14 13 12 12 11 11 11 11 11 11 10 10 10 10 10 10 10 9 9
9 9 10 11 13 14 13 14 14 14 14 15 15 15 17 18 18 18 19 19 18 17 17 16 15 15 14 13 12 12 12 11 11 11 11 10 10 10 10 9 9 9 9 9
7 8 9 9 11 12 11 13 13 14 14 14 14 15 17 17 17 17 19 19 18 18 17 17 16 15 14 14 13 12 12 12 11 11 11 10 10 9 9 9 9 9 9 8
6 7 8 8 10 9 11 14 14 14 14 15 15 16 16 17 18 19 19 18 18 18 17 17 16 16 15 14 13 12 12 11 11 11 10 10 9 9 9 9 8 8 8 8
8 7 7 7 8 9 12 13 14 14 14 15 15 15 16 17 17 17 18 18 18 18 17 17 16 16 15 14 13 13 12 11 11 11 10 10 10 9 9 9 8 8 8 8
8 8 7 7 7 8 12 14 14 14 13 15 15 15 15 15 14 14 17 17 17 17 17 16 16 16 15 14 14 13 12 11 11 11 10 10 9 9 9 9 8 8 7 7
7 7 6 6 7 9 12 13 13 12 12 14 15 15 15 14 15 16 17 17 16 16 16 16 15 15 14 14 13 12 12 11 11 10 9 9 9 8 8 8 7 7 7 6
6 6 6 7 7 8 12 12 12 12 14 15 15 16 15 15 15 16 16 16 15 15 15 15 14 14 13 13 13 12 11 11 10 9 9 8 8 7 7 7 7 6 6 5
7 7 7 7 9 11 12 12 13 14 14 14 15 15 15 15 15 15 15 15 14 14 14 14 13 13 12 12 12 12 11 10 9 9 8 8 7 7 6 6 6 5 5 5
7 8 8 8 9 10 11 12 13 13 13 13 14 14 14 14 14 14 14 14 14 13 13 13 12 12 12 11 11 11 10 10 9 8 8 7 6 6 5 5 5 5 4 4
6 6 7 8 9 10 11 11 12 12 12 13 13 13 14 14 13 13 13 13 13 12 12 12 12 12 11 11 10 10 9 9 8 8 7 6 6 5 5 4 4 4 4 4
6 6 7 8 9 9 10 11 12 12 11 12 12 12 13 13 13 13 12 12 12 12 12 11 11 11 10 10 9 9 8 8 8 7 6 6 5 5 4 4 3 3 3 3

GEFSCGP_850_meantemp_126.txt.gz
Temperature
12 11 11 12 13 13 13 13 14 14 16 15 14 15 16 16 16 16 17 19 20 20 21 21 21 20 20 19 19 18 17 16 15 14 13 12 12 12 11 11 11 10 10 10
10 11 13 13 13 13 13 13 13 14 15 15 14 14 15 15 15 17 17 18 20 20 21 21 21 21 20 20 19 19 18 17 16 15 15 14 13 12 12 11 11 10 10 10
10 12 13 13 13 13 13 12 13 13 15 15 15 14 14 14 16 17 18 19 19 20 20 21 21 21 20 20 20 19 19 18 17 16 14 13 12 11 11 11 10 10 10 10
11 12 13 13 13 13 13 14 14 14 14 13 14 12 13 14 14 15 16 18 19 20 20 20 21 21 20 20 20 20 19 18 17 16 14 13 12 12 12 11 11 10 10 10
10 11 12 13 13 13 13 14 14 14 13 12 12 12 12 13 14 15 15 17 19 20 20 20 20 20 20 20 20 20 19 18 17 16 15 14 13 13 12 11 11 10 10 10
11 12 13 13 14 14 14 14 13 12 12 11 12 11 11 12 14 15 16 17 19 20 20 20 20 20 20 20 19 19 19 18 17 16 15 14 14 13 12 11 11 10 10 10
10 11 12 13 13 13 13 12 11 10 10 10 11 11 12 13 14 15 16 17 19 20 20 20 20 20 20 19 19 19 18 18 17 16 15 15 14 13 13 12 11 11 10 10
9 10 11 12 13 12 13 12 11 11 10 10 11 11 12 13 15 16 17 18 19 19 20 20 20 20 20 19 19 18 18 17 17 16 15 14 14 13 12 12 11 11 11 11
9 9 11 12 13 13 12 13 12 11 10 10 10 11 12 13 14 14 15 17 17 19 19 19 19 19 19 19 19 18 18 17 17 16 15 14 13 13 12 12 11 11 11 11
8 8 10 11 12 13 13 12 12 11 10 10 10 10 12 14 14 14 14 15 17 18 19 19 19 19 19 18 18 17 17 17 16 16 15 14 13 12 12 11 11 11 10 10
7 8 9 11 11 11 12 12 12 11 10 10 10 11 13 14 14 14 14 16 17 18 19 19 19 19 18 18 17 17 16 16 15 15 14 14 13 12 11 11 11 11 10 10
7 7 8 9 11 12 11 11 11 11 9 9 9 11 14 13 14 14 14 17 18 18 19 19 18 18 18 17 17 16 16 15 15 15 14 13 12 11 11 11 10 10 10 10
6 6 7 8 9 10 10 10 10 10 9 9 10 11 13 13 13 14 15 16 17 18 18 18 18 18 18 17 17 16 15 15 14 14 13 12 12 11 11 10 10 10 10 10
6 5 6 7 8 8 8 9 9 10 10 9 10 12 14 14 13 13 14 16 17 17 18 18 18 17 17 17 16 16 15 14 13 13 12 12 11 11 11 10 10 10 10 9
4 4 5 6 7 8 8 9 9 9 10 10 11 11 12 13 13 13 15 15 16 16 17 17 18 17 17 16 16 15 15 14 13 12 12 11 11 11 10 10 10 9 9 9
3 4 5 6 7 8 8 9 10 10 11 10 11 11 12 13 13 13 14 14 15 16 17 17 17 17 17 16 16 15 15 14 12 12 11 11 10 10 10 9 9 9 9 9
2 3 4 5 7 7 7 9 10 10 11 11 11 12 12 12 12 13 14 15 15 16 17 17 17 17 17 17 16 15 15 13 12 11 11 10 10 10 9 9 9 9 9 9
2 3 3 4 5 5 8 9 10 10 10 11 11 11 12 12 13 15 16 16 16 17 17 17 17 17 17 17 16 15 14 13 12 11 10 10 10 9 9 9 9 9 9 8
3 3 3 3 4 5 7 8 9 9 9 10 10 11 11 12 13 14 15 16 16 17 17 17 17 17 17 17 16 15 14 13 12 11 11 10 10 9 9 9 8 8 8 8
3 3 3 3 4 6 8 8 9 9 9 9 9 10 10 10 10 12 14 14 15 16 16 16 17 16 16 16 16 15 14 13 13 12 11 11 10 9 9 8 8 8 8 8
3 2 2 3 4 5 7 8 9 8 9 9 9 9 9 9 11 13 13 14 14 15 15 16 16 16 16 16 15 15 14 14 13 12 11 10 9 9 8 8 8 7 7 7
2 2 2 3 4 5 7 7 8 8 9 10 10 10 10 10 11 12 12 13 14 14 14 15 15 15 15 15 15 14 14 14 13 12 11 10 9 8 8 7 7 7 7 6
3 3 3 3 5 6 7 7 8 9 9 10 11 11 11 10 11 11 12 12 13 13 14 14 15 15 15 14 14 14 14 13 12 11 10 9 9 8 7 7 7 6 6 6
2 3 2 3 4 5 6 7 8 8 9 10 10 11 11 11 11 11 11 12 12 12 13 14 14 14 14 14 13 13 13 12 11 10 10 9 8 7 7 6 6 6 6 5
1 2 2 2 4 5 6 7 8 8 8 9 10 10 11 11 11 11 11 11 12 12 12 13 13 13 13 13 12 12 12 11 10 10 9 8 7 7 6 6 5 5 5 5
1 2 2 3 4 4 5 7 7 7 8 8 9 10 10 10 11 11 11 11 11 11 12 12 12 12 12 12 11 11 10 10 10 9 8 8 7 6 6 5 5 4 4 4

GEFSCGP_850_meantemp_132.txt.gz
Temperature
9 9 9 10 10 11 11 11 11 12 13 13 12 12 13 14 14 13 15 16 17 19 20 20 20 19 19 19 18 18 17 17 16 14 13 13 13 13 13 12 12 11 11 10
8 9 10 11 11 11 11 11 11 12 13 13 12 12 13 13 13 14 15 16 17 19 19 19 19 19 19 19 18 18 18 17 17 16 16 16 15 14 13 12 12 11 11 10
8 10 11 11 10 10 10 10 11 12 13 13 13 12 12 13 13 15 16 17 18 19 19 20 20 19 19 19 19 19 19 18 18 17 16 14 12 11 11 11 12 11 11 11
8 10 10 10 11 10 11 11 11 12 12 11 12 11 11 12 12 12 13 15 17 18 19 19 20 20 20 20 20 19 19 19 18 17 15 14 13 13 14 13 13 12 11 11
8 9 10 10 11 11 11 12 11 11 11 10 11 10 10 11 12 13 13 15 17 19 19 19 20 20 20 20 20 20 19 19 18 17 16 15 15 15 14 13 12 12 11 11
8 9 10 10 11 11 11 11 11 10 10 10 10 10 10 10 12 13 13 15 17 19 19 19 20 20 20 20 20 20 19 19 18 18 17 16 15 15 14 13 12 12 11 11
7 8 9 10 10 10 11 10 9 9 9 10 10 10 11 11 12 13 14 15 18 19 19 19 19 20 20 20 20 20 19 19 18 18 17 16 16 15 14 14 13 12 11 11
6 7 8 9 10 9 10 10 10 10 10 9 9 10 11 11 12 13 15 16 17 18 19 19 19 19 20 20 19 19 19 19 18 18 17 16 16 15 14 14 13 13 13 12
5 6 8 9 9 10 9 10 10 10 9 9 8 9 9 10 11 12 12 14 16 17 18 19 19 19 19 19 19 19 19 18 18 18 17 16 15 14 14 14 13 12 12 12
4 5 7 8 9 10 10 9 9 9 9 9 9 8 10 11 12 12 12 13 15 17 18 18 19 19 19 19 19 19 18 18 18 17 17 16 15 15 14 13 12 12 12 12
3 4 5 7 8 8 8 9 9 9 9 9 9 10 10 12 13 13 13 14 15 17 18 18 18 18 18 18 18 18 18 18 17 17 16 16 15 14 13 12 12 12 11 11
3 4 4 6 7 8 8 8 7 8 8 8 8 10 12 11 12 12 13 14 15 16 17 17 18 18 18 18 18 18 18 17 17 16 16 15 14 13 12 12 12 11 11 11
3 3 3 5 6 6 7 7 7 7 7 7 8 10 11 10 11 11 12 14 15 16 17 17 17 18 18 18 18 18 17 17 16 16 15 14 13 13 12 12 11 11 11 11
4 2 3 4 4 4 5 6 6 7 7 7 7 9 11 11 11 11 12 13 14 15 16 16 17 17 17 17 17 17 17 17 16 15 14 14 13 13 12 11 11 11 11 10
2 2 2 3 4 4 5 6 6 6 7 7 8 8 10 10 10 11 12 12 13 14 15 16 16 17 17 17 17 17 17 16 15 15 14 13 13 12 12 11 11 10 10 10
1 1 2 3 4 5 5 6 7 7 7 7 8 8 9 10 10 10 11 12 12 13 14 15 16 16 17 17 17 17 16 16 15 15 14 13 12 12 11 10 10 10 10 10
0 0 1 2 4 4 4 6 7 7 8 8 8 9 8 9 9 9 11 12 12 13 14 15 15 16 16 17 17 16 16 15 15 14 13 13 12 11 11 10 10 10 10 9
0 0 1 2 3 3 5 6 7 7 7 8 8 8 8 9 10 11 12 12 13 13 13 14 15 15 16 16 16 16 16 15 15 14 13 12 11 11 10 10 9 9 9 9
1 1 1 1 2 3 4 5 6 6 6 7 7 7 8 9 9 10 12 12 12 13 13 14 14 15 15 16 16 16 15 15 14 14 13 12 11 11 10 9 9 9 9 9
1 1 1 1 2 3 5 5 6 6 6 6 6 6 6 7 7 9 11 11 12 12 13 13 14 14 15 15 15 15 15 15 14 14 13 12 11 10 10 9 9 9 8 8
0 0 0 0 1 3 4 4 6 5 5 6 6 6 6 6 8 9 10 11 11 12 12 13 13 13 14 15 15 15 15 15 14 13 12 12 11 10 9 9 9 8 8 8
-0 -0 -0 0 1 2 3 4 4 4 5 5 5 6 6 7 8 8 9 10 11 11 12 12 12 13 13 14 14 14 15 14 14 13 12 11 11 10 9 8 8 8 7 7
-0 0 -0 0 2 3 3 4 5 5 5 5 5 6 6 6 7 7 8 9 10 10 11 11 12 12 13 13 13 14 14 14 13 13 12 11 10 9 9 8 8 7 7 7
-1 -0 -0 -0 1 2 3 4 4 4 5 5 5 6 6 6 6 6 7 8 9 10 10 11 11 11 12 12 13 13 13 13 12 12 11 10 10 9 8 8 7 7 7 6
-1 -1 -1 -1 1 2 3 4 4 4 4 5 5 6 6 6 6 6 7 8 8 9 10 10 10 11 11 12 12 12 12 12 12 11 10 10 9 8 8 7 7 7 7 6
-1 -1 -1 0 1 1 2 3 4 4 4 4 5 5 6 6 6 6 7 7 8 9 9 10 10 10 11 11 11 11 11 11 11 10 10 9 9 8 7 7 6 6 6 5

GEFSCGP_850_meantemp_138.txt.gz
Temperature
8 8 9 10 11 13 15 15 15 16 17 16 16 17 18 19 18 19 19 19 19 19 19 18 17 17 16 15 15 15 15 15 14 13 13 13 13 12 12 12 12 11 11 11
8 8 10 12 12 12 13 13 14 15 16 16 16 17 18 19 19 18 19 19 19 19 19 18 17 16 16 16 16 16 15 15 15 15 15 15 14 12 12 12 12 12 11 11
8 10 11 11 11 11 12 12 14 14 14 15 15 16 17 18 18 18 18 19 19 19 19 18 17 17 17 16 16 17 17 16 16 16 14 13 12 11 11 12 12 12 12 11
8 10 10 10 10 11 11 13 13 13 13 13 14 15 17 18 18 18 18 18 19 19 19 19 18 17 17 18 18 18 17 17 17 16 14 13 13 13 14 14 13 12 12 11
8 9 9 9 10 11 11 13 13 12 12 13 13 14 17 18 17 18 19 19 18 18 18 18 18 18 18 19 18 18 17 17 16 16 15 14 14 15 14 13 12 12 12 12
7 9 9 10 11 11 11 11 11 11 11 10 13 13 15 18 18 19 19 19 19 18 18 18 18 18 18 18 18 18 17 17 16 16 15 15 15 14 13 12 12 12 12 12
6 8 8 9 9 10 10 9 9 9 10 11 14 14 15 18 18 19 19 19 19 18 18 18 18 18 18 18 18 18 18 17 17 16 15 15 15 14 13 13 13 12 12 12
5 7 8 8 8 8 9 9 10 11 12 13 14 14 16 18 18 18 18 18 18 18 18 18 18 18 18 18 18 18 18 18 17 16 16 16 15 14 13 13 13 12 13 13
5 7 8 8 8 8 8 9 11 12 13 13 13 15 17 16 17 17 17 17 17 17 17 17 17 17 18 18 18 18 18 18 17 17 16 16 15 14 14 13 12 12 12 12
3 5 7 8 8 9 9 9 10 9 11 12 13 14 16 16 16 16 17 17 16 16 16 16 16 17 17 17 17 18 18 18 17 17 16 16 16 15 14 13 12 12 12 12
3 4 5 6 6 7 8 8 8 9 11 12 13 15 16 16 16 16 17 17 16 16 16 15 15 16 17 17 17 17 17 17 17 16 16 16 15 14 14 13 12 12 12 11
3 3 4 6 6 7 7 7 8 9 9 12 13 15 15 16 16 16 16 15 15 15 15 15 15 15 16 16 17 17 17 17 17 16 16 15 15 14 13 12 12 12 11 11
3 3 4 5 5 5 6 6 7 8 10 11 13 14 15 15 14 14 14 14 14 13 13 14 14 14 15 15 16 16 16 17 16 16 15 15 14 14 13 12 12 12 11 11
3 2 3 4 4 4 4 5 6 7 8 10 12 14 14 13 13 14 13 13 13 12 12 13 13 14 14 15 15 16 16 16 16 15 15 14 14 14 13 13 12 11 11 11
2 2 3 4 5 4 4 5 6 6 7 9 11 12 13 13 13 13 13 12 12 11 11 12 12 13 13 14 15 15 16 16 16 15 15 15 14 13 13 12 12 11 11 10
2 2 3 4 5 5 5 6 6 6 7 9 10 11 12 12 12 12 12 11 11 11 11 11 12 12 13 14 14 15 15 15 15 15 15 14 14 13 12 12 11 11 10 10
2 1 2 3 5 5 5 6 6 7 7 9 9 10 11 11 11 11 11 11 11 11 11 11 12 12 13 13 14 15 15 15 15 15 15 14 14 13 12 12 11 11 10 10
1 1 2 3 3 3 6 7 7 7 7 7 8 8 9 10 10 10 10 10 10 10 11 11 11 12 13 13 13 14 14 15 14 14 14 14 13 13 12 11 11 11 10 10
1 1 1 2 3 4 6 6 6 6 6 6 7 8 8 8 10 10 9 9 9 10 10 11 11 12 12 13 13 14 14 14 14 14 14 13 13 12 12 11 11 10 10 9
2 1 1 2 2 4 5 5 5 6 5 6 6 7 7 8 9 10 9 8 9 9 10 10 11 12 12 12 13 13 13 14 14 14 13 13 12 12 12 11 11 10 9 9
1 1 1 1 2 4 4 4 5 5 5 5 5 6 6 7 7 8 8 8 8 8 9 10 11 11 12 12 12 13 13 13 13 13 13 12 12 12 11 11 10 9 9 9
1 1 1 1 2 3 4 4 4 4 4 4 4 4 5 5 6 6 7 7 7 8 9 9 10 11 11 12 12 12 13 13 13 13 12 12 11 11 11 10 10 9 9 8
1 2 2 2 3 4 4 3 3 3 3 3 4 4 4 4 5 5 6 6 7 7 8 9 9 10 11 11 11 12 12 12 12 12 12 11 11 10 10 10 9 9 8 8
1 1 1 2 3 3 3 3 3 3 3 3 3 3 3 3 4 4 5 5 6 7 7 8 9 9 10 10 11 11 12 12 12 11 11 11 10 10 9 9 9 8 8 8
1 1 1 1 2 3 3 2 2 2 2 2 2 2 2 3 3 4 4 5 5 6 7 7 8 8 9 10 10 11 11 11 11 11 10 10 9 9 9 8 8 8 8 8
1 0 0 1 2 1 2 1 1 1 1 1 1 2 2 2 2 3 3 4 5 5 6 7 7 8 9 9 9 10 10 10 10 10 9 9 9 8 8 7 7 7 7 7

GEFSCGP_850_meantemp_144.txt.gz
Temperature
7 6 6 8 9 10 11 11 12 13 16 15 15 16 17 18 18 18 19 20 20 20 20 20 20 19 19 18 17 16 15 14 13 13 13 13 13 12 12 12 12 12 12 12
6 6 8 9 10 10 10 10 11 13 15 15 15 15 16 17 18 18 19 20 20 20 21 20 20 19 19 18 17 16 15 14 14 14 14 14 13 13 12 12 12 12 12 12
6 7 9 9 9 9 9 10 10 11 13 14 14 14 15 17 18 19 19 20 20 21 21 21 20 20 19 18 17 16 16 15 14 14 13 12 12 11 12 12 12 12 12 12
7 8 9 8 8 9 8 10 11 11 11 11 12 11 14 16 17 18 18 19 20 20 21 21 20 20 19 19 18 17 16 15 15 14 13 13 13 13 15 14 14 13 12 12
6 8 8 8 9 9 9 10 10 10 10 10 11 11 13 16 16 17 18 19 20 20 20 21 21 20 19 19 18 17 16 15 15 14 14 14 14 15 14 13 13 13 12 12
6 7 7 8 9 10 10 10 9 9 9 9 10 10 11 15 16 17 18 19 19 20 20 20 20 20 19 19 18 17 16 15 15 14 14 14 15 15 14 13 13 13 13 12
6 7 7 8 7 9 9 8 7 7 8 8 11 11 12 15 17 17 18 18 19 19 19 20 20 20 19 19 18 17 16 15 15 14 13 14 14 14 14 15 14 14 13 13
4 5 7 7 7 7 8 7 7 8 8 10 11 11 13 15 17 18 18 19 19 19 19 19 19 19 19 18 18 17 16 16 15 14 14 14 14 14 14 14 14 14 15 15
3 4 7 7 8 8 7 7 8 8 9 10 11 13 14 15 16 16 17 18 18 18 18 19 19 19 18 18 18 17 17 16 15 14 14 14 13 13 14 14 13 13 14 14
3 3 5 7 7 7 7 7 7 7 7 9 11 12 13 14 15 16 16 16 17 18 18 18 18 18 18 18 18 17 17 16 16 15 14 14 14 14 14 13 13 13 13 13
3 2 4 6 5 6 6 6 6 6 7 8 9 11 14 14 15 15 15 16 16 17 17 17 17 18 18 17 17 17 16 16 15 15 15 14 14 13 13 13 13 13 12 12
3 2 3 4 5 5 5 5 5 5 6 8 8 11 14 14 14 15 14 15 16 16 16 16 16 17 17 17 17 16 16 16 15 15 15 15 14 14 13 13 13 13 12 12
3 2 2 4 4 4 4 4 5 5 6 7 8 10 12 12 13 14 14 15 15 15 15 15 15 15 16 16 16 16 16 16 15 15 15 14 14 14 13 13 13 12 12 11
4 1 1 2 2 3 3 4 4 4 5 6 8 9 10 11 11 12 12 13 14 14 14 14 14 14 14 15 15 15 15 15 15 15 15 15 14 14 14 13 13 12 12 11
2 1 2 3 4 4 4 4 4 4 5 5 7 8 9 9 10 11 11 12 12 12 13 13 13 13 13 13 14 14 14 14 14 15 15 15 15 14 13 13 12 12 11 11
2 1 2 2 4 5 4 5 5 5 5 6 7 8 8 8 9 9 10 10 10 11 11 11 11 12 12 12 12 13 13 13 14 14 14 14 14 13 13 13 12 12 11 11
1 1 1 1 4 4 3 5 5 5 5 5 6 7 7 7 8 8 8 9 9 9 9 9 10 11 11 11 12 12 12 12 13 13 13 14 13 13 13 13 12 12 11 11
1 0 0 1 2 2 4 5 6 5 5 5 5 6 6 6 7 7 7 8 8 8 9 9 9 10 10 11 11 11 12 12 12 12 12 13 13 13 13 12 12 12 11 11
2 1 0 1 1 2 4 4 4 4 4 4 4 5 6 6 7 7 7 7 7 8 8 9 9 9 9 10 10 11 11 11 11 12 12 12 12 12 12 12 12 11 11 10
3 1 0 0 1 2 3 4 4 4 3 3 4 4 5 5 5 5 6 6 7 7 8 8 8 9 9 9 10 10 11 11 11 11 12 12 12 12 12 12 11 11 11 10
1 0 -0 -0 0 2 3 4 4 3 2 3 3 4 4 4 4 5 5 6 6 7 7 8 8 8 8 9 9 10 10 10 11 11 11 11 11 12 12 11 11 10 10 10
0 -0 -0 -0 0 1 3 3 2 2 3 3 3 3 3 3 4 4 5 5 5 6 7 7 7 8 8 8 9 9 10 10 10 10 11 11 11 11 11 11 10 10 10 9
1 1 0 0 1 2 3 3 2 2 2 2 2 2 3 3 3 4 4 5 5 5 6 6 7 7 7 8 8 9 9 10 10 10 10 10 10 10 10 10 10 10 9 9
1 2 1 1 2 2 3 2 2 2 2 2 2 2 2 2 2 3 4 4 4 4 5 6 6 7 7 7 8 8 9 9 9 9 9 9 9 9 9 9 10 9 9 9
1 1 0 0 1 1 2 2 2 1 2 2 2 1 1 1 2 2 2 3 3 4 4 5 6 6 7 7 7 8 8 9 9 9 9 9 9 9 9 9 9 9 9 9
0 -0 -1 -0 1 0 1 1 1 1 1 1 1 1 1 1 1 1 2 2 3 3 3 4 5 6 6 6 7 7 8 8 8 8 8 8 8 8 8 8 8 8 8 8

GEFSCGP_850_meantemp_150.txt.gz
Temperature
5 3 3 4 5 6 6 6 7 8 10 10 10 10 11 12 13 13 14 15 16 16 17 17 17 17 16 16 15 15 14 14 14 13 13 13 13 13 12 12 12 12 12 12
3 3 5 6 6 5 5 5 6 7 9 9 9 10 11 12 12 13 14 15 15 16 17 17 17 17 16 16 16 15 15 15 14 14 14 14 14 13 12 12 12 12 12 12
3 4 6 6 5 5 5 5 6 6 8 9 8 9 10 11 12 13 14 15 15 16 16 17 17 17 17 16 16 16 16 15 15 15 14 13 12 12 12 12 12 12 12 12
3 5 5 5 5 5 5 6 6 6 6 7 8 8 9 10 11 12 13 14 15 16 16 17 17 17 17 17 17 16 16 16 15 15 14 13 13 13 14 13 13 13 12 12
3 4 5 4 5 6 5 6 6 6 6 6 7 7 8 10 11 12 12 13 14 15 16 17 17 17 17 17 17 17 16 16 16 15 14 14 14 14 14 13 13 13 12 12
3 4 4 4 5 6 6 6 6 6 5 5 6 7 7 9 10 11 12 13 14 15 16 16 17 17 17 17 17 17 16 16 16 15 15 15 15 14 14 13 13 13 12 12
2 4 4 5 4 5 5 4 4 4 5 5 7 7 7 9 10 11 12 13 14 15 15 16 16 17 17 17 17 16 16 16 15 15 15 15 15 15 15 15 14 14 13 13
0 2 4 4 4 4 4 4 4 4 5 6 7 7 8 9 10 11 12 13 14 15 15 16 16 16 17 17 16 16 16 16 15 15 15 15 15 15 15 15 14 14 15 15
0 1 4 4 5 4 4 4 4 4 5 5 6 7 8 9 9 10 11 12 13 14 15 15 16 16 16 16 16 16 16 16 15 15 16 15 15 15 15 15 15 15 15 15
0 0 2 4 4 4 4 4 4 4 4 5 6 6 7 8 8 9 10 10 12 13 14 15 15 16 16 16 16 16 16 16 16 16 15 15 15 15 15 15 14 14 15 14
1 -0 1 2 2 2 3 3 3 4 4 4 5 6 7 7 8 8 8 9 11 12 13 14 15 15 16 16 16 16 16 16 16 16 15 15 15 15 15 14 14 14 14 14
1 -0 -1 1 2 2 2 2 2 3 3 4 5 6 7 7 7 7 7 8 9 11 12 12 13 14 15 15 15 15 15 15 16 16 15 15 15 15 14 14 14 14 14 13
1 -1 -1 0 1 1 1 1 1 1 2 3 4 6 7 6 6 6 6 7 8 9 10 11 12 13 14 14 15 15 15 15 15 15 15 15 15 14 14 14 14 14 13 13
2 -1 -1 -1 -0 -0 -0 1 1 1 2 2 3 5 5 5 5 5 5 6 7 7 8 9 10 11 12 13 14 14 14 14 15 15 15 15 14 14 15 14 14 13 13 13
0 -1 -1 -0 1 1 1 1 1 1 2 2 3 4 4 4 4 4 4 5 6 6 7 8 9 9 11 12 12 13 13 14 14 14 14 14 14 14 14 14 13 13 13 12
-1 -1 -1 -0 1 1 2 2 2 2 2 2 3 3 4 4 4 3 4 4 4 5 6 7 8 9 9 10 11 12 13 13 13 13 14 14 14 14 13 13 13 13 12 12
-2 -2 -1 -1 0 1 1 1 2 2 2 2 2 3 3 3 3 3 3 3 3 4 4 6 7 8 9 9 10 11 12 12 13 13 13 13 13 13 13 13 12 12 12 12
-2 -2 -2 -1 -1 -1 1 1 2 2 1 1 2 2 2 3 3 3 3 3 3 3 4 5 6 7 8 9 10 11 11 12 12 12 13 13 13 13 12 12 12 12 12 12
-1 -2 -2 -2 -2 -1 1 1 1 1 1 1 1 2 2 2 3 3 3 3 3 3 4 5 6 7 8 9 9 10 10 11 11 11 12 12 12 12 12 12 12 12 12 11
-1 -2 -2 -2 -2 -1 0 1 2 1 0 1 1 1 1 1 1 2 2 2 2 3 4 5 6 7 7 8 9 9 9 10 10 11 11 11 11 11 11 12 12 11 11 11
-2 -3 -3 -3 -2 -1 0 1 1 0 -0 0 1 1 1 1 1 2 2 2 3 3 4 4 5 6 7 7 8 8 9 9 10 10 10 10 10 11 11 11 11 11 11 10
-2 -3 -3 -3 -3 -1 0 0 -0 -0 1 1 1 1 1 1 1 1 2 2 2 3 4 4 5 5 6 7 7 8 8 8 9 9 10 10 10 10 10 10 10 10 10 10
-2 -2 -3 -3 -2 -1 0 0 1 1 0 0 0 1 1 1 1 1 1 1 2 3 3 4 4 5 6 6 6 7 7 8 8 8 9 9 9 9 9 9 10 9 9 9
-3 -2 -3 -3 -2 -1 0 0 1 1 0 0 0 0 0 0 1 1 1 1 1 2 2 3 4 4 5 5 6 6 6 7 7 8 8 8 8 9 9 9 9 9 9 9
-3 -2 -3 -3 -2 -2 -0 0 0 0 0 0 -0 -0 0 0 0 0 0 1 1 1 2 2 3 3 4 5 5 6 6 6 7 7 7 7 8 8 8 8 8 9 9 9
-3 -3 -3 -3 -2 -2 -1 -0 -0 -0 -1 -1 -1 -0 -0 -0 -0 0 0 0 1 1 1 2 2 3 4 4 5 5 5 6 6 6 7 7 7 7 8 8 7 7 8 8

GEFSCGP_850_meantemp_156.txt.gz
Temperature
3 2 2 2 3 3 4 3 4 5 6 6 6 6 7 9 9 9 10 11 11 13 14 14 14 14 14 14 13 14 13 13 13 13 13 13 13 13 12 12 12 12 12 12
2 1 3 3 4 3 3 3 3 4 6 6 6 6 7 8 9 9 10 10 11 12 13 13 14 14 14 14 14 13 13 13 13 13 13 13 13 13 12 12 12 12 12 12
2 2 4 4 3 3 3 3 3 4 5 5 5 5 7 8 9 9 10 10 11 11 12 13 13 14 14 14 14 14 14 13 13 13 13 12 12 12 12 12 12 12 12 12
2 3 3 3 3 3 3 4 4 4 4 4 5 4 6 7 8 8 9 10 10 11 12 13 13 14 14 14 14 14 14 14 13 13 13 13 12 13 13 13 13 13 12 12
1 2 3 3 3 3 3 4 4 4 3 3 4 4 5 6 7 8 8 9 10 11 11 12 13 14 14 14 14 14 14 14 13 13 13 13 13 13 13 13 13 13 12 12
1 3 3 3 3 3 3 3 3 3 3 3 4 4 4 5 7 8 8 9 10 10 11 12 13 13 14 14 14 14 14 14 13 13 13 13 13 13 13 13 13 13 13 12
0 2 2 3 2 3 3 2 2 2 2 2 4 4 4 5 6 7 8 9 9 10 10 11 12 13 13 14 14 14 14 14 14 13 13 13 14 14 14 14 14 13 13 13
-2 -0 2 2 2 2 2 2 2 2 3 3 4 4 4 5 6 7 7 8 8 9 10 10 11 12 13 13 14 14 14 14 14 14 14 14 14 14 14 14 14 14 14 14
-1 -1 2 2 2 2 2 2 2 2 2 3 4 4 5 5 5 5 5 6 6 7 8 9 10 11 12 13 14 14 14 14 14 14 14 14 14 14 14 14 14 14 14 14
-1 -1 0 1 2 2 2 1 1 2 2 3 3 4 4 4 4 5 5 5 5 6 7 8 9 10 11 13 13 14 14 14 14 14 14 14 14 14 14 14 14 14 14 14
-1 -2 -1 -0 -0 0 1 1 1 1 2 2 3 4 4 3 4 4 4 4 5 5 5 6 8 9 10 11 13 14 14 14 14 14 14 14 14 14 14 14 14 14 14 14
-1 -2 -2 -1 -0 0 0 -0 0 0 0 1 2 3 3 3 3 3 3 4 4 4 5 6 7 8 9 10 11 13 13 13 14 14 14 14 14 13 13 13 14 14 14 13
-1 -2 -3 -2 -1 -1 -1 -1 -1 -1 -0 0 1 2 4 3 3 3 3 3 3 4 4 5 6 7 8 9 10 11 12 13 13 14 14 14 13 13 13 13 14 14 13 13
1 -2 -3 -2 -2 -2 -2 -1 -1 -1 -1 -0 0 1 2 2 2 2 3 3 3 3 3 4 5 6 7 8 9 10 11 12 13 13 14 13 13 13 13 13 14 13 13 13
-1 -2 -3 -2 -1 -1 -1 -1 -0 -1 -0 -0 0 1 1 2 2 2 2 2 2 2 2 3 4 4 6 7 8 10 10 11 12 13 13 14 14 14 13 13 13 13 13 13
-2 -3 -2 -2 -1 -0 -0 0 0 0 -0 -0 0 1 1 1 1 1 1 2 2 2 2 2 3 4 5 6 7 9 10 11 11 12 13 13 13 13 13 13 12 12 12 12
-3 -3 -3 -2 -1 -1 -1 -0 -0 -0 -0 -1 -0 0 0 0 1 1 1 1 1 1 1 2 2 3 4 5 6 8 9 10 10 11 12 12 12 12 13 13 12 12 12 12
-3 -3 -3 -3 -3 -3 -1 -0 -0 -0 -1 -1 -0 -0 -0 0 1 1 1 1 1 1 1 1 2 3 4 5 6 7 8 9 10 11 11 11 12 12 12 12 12 12 12 11
-3 -3 -3 -3 -3 -3 -1 -0 -1 -1 -1 -1 -1 -0 -0 0 1 1 1 1 1 1 1 1 2 3 4 5 6 7 7 8 9 10 10 11 11 11 12 12 12 11 11 11
-3 -3 -3 -4 -3 -2 -1 0 0 -1 -1 -1 -1 -1 -1 -1 -1 0 1 1 1 1 1 2 2 3 4 5 5 6 7 8 8 9 9 10 10 11 11 11 11 11 11 11
-4 -4 -4 -4 -4 -3 -1 -0 -0 -2 -2 -0 -0 -1 -1 -1 -1 0 0 1 1 1 1 2 2 3 3 4 5 5 6 7 8 8 9 9 10 10 10 11 11 11 11 10
-4 -5 -5 -5 -4 -3 -1 -1 -1 -2 -0 -0 -0 -0 -1 -0 -0 -0 -0 0 0 1 1 1 2 3 3 4 4 5 6 6 7 7 8 8 9 9 9 9 10 10 10 10
-4 -4 -5 -4 -3 -2 -1 -1 -0 0 -0 -0 -0 -0 -0 -1 -1 -1 -1 -0 -0 0 1 1 1 2 3 3 4 4 5 6 6 7 7 8 8 8 9 9 9 9 9 9
-5 -5 -5 -5 -4 -3 -1 -0 -0 -0 -0 -0 -1 -1 -1 -1 -1 -1 -1 -1 -0 0 0 1 1 2 3 3 3 4 4 5 5 6 6 7 7 7 8 8 8 8 8 8
-4 -5 -5 -5 -4 -3 -2 -1 -0 -1 -1 -1 -1 -1 -1 -1 -1 -1 -1 -1 -1 -0 -0 0 0 1 2 3 3 3 4 4 5 5 6 6 6 7 7 7 8 8 8 9
-5 -5 -5 -4 -3 -3 -3 -1 -1 -1 -2 -2 -2 -2 -2 -2 -2 -2 -2 -1 -1 -1 -1 -0 0 1 1 2 3 3 3 4 4 4 5 5 5 6 6 7 7 7 8 8

GEFSCGP_850_meantemp_162.txt.gz
Temperature
5 5 5 6 6 5 5 5 6 7 8 7 7 8 10 10 10 11 11 11 11 11 11 11 11 12 12 12 13 13 13 13 13 13 13 13 13 13 13 13 13 13 12 12
6 5 6 6 6 5 5 5 6 7 8 7 7 8 10 10 10 10 10 11 10 10 11 10 11 11 11 12 12 13 13 13 13 13 13 13 13 13 13 13 13 12 12 12
5 6 6 5 5 5 5 5 6 6 7 7 7 8 9 11 10 10 10 10 10 10 10 10 11 11 11 11 12 12 13 13 13 13 13 13 13 13 13 13 13 12 12 12
5 6 5 5 5 5 5 6 6 5 5 6 6 6 9 10 10 10 10 10 9 9 9 10 10 10 11 11 12 12 12 13 13 13 13 13 13 12 12 13 12 12 12 12
5 5 5 4 5 5 5 6 5 5 5 5 6 6 8 9 8 9 9 9 9 9 9 9 9 10 10 11 11 12 12 12 12 12 12 12 12 12 12 12 12 12 12 12
5 5 5 5 5 5 5 5 6 6 5 5 7 6 8 8 7 8 8 8 8 8 8 9 9 9 10 10 11 11 11 12 12 12 12 12 12 12 12 12 12 12 12 12
5 5 5 5 4 5 5 4 5 5 5 6 8 7 7 7 7 7 7 7 7 7 7 8 8 9 9 10 10 10 11 11 12 12 12 12 12 12 12 12 12 12 12 12
3 4 5 4 4 4 4 4 4 4 5 7 7 7 7 6 6 6 6 6 6 6 6 6 7 8 9 9 10 10 11 11 11 12 12 12 12 12 12 12 12 12 12 12
3 3 4 4 4 4 4 4 4 3 4 5 6 7 7 6 6 6 6 5 5 5 5 6 6 7 8 9 9 10 10 11 11 11 12 12 12 12 12 12 12 12 12 12
2 2 4 4 4 4 4 4 3 3 3 5 6 6 5 5 5 5 5 5 5 4 4 5 5 6 7 8 8 9 10 10 11 11 11 11 12 12 12 12 12 12 12 12
1 1 3 3 3 3 3 3 3 3 3 3 4 5 5 4 4 4 4 4 4 4 4 4 4 5 6 7 8 9 9 10 10 11 11 11 12 12 12 12 12 12 12 12
1 1 2 3 3 3 2 2 2 2 2 3 3 4 5 4 4 4 4 3 3 3 3 3 3 4 5 6 7 8 9 9 10 10 11 11 11 11 11 12 12 12 12 12
1 1 1 3 3 2 1 2 1 1 2 2 3 4 5 4 4 4 3 3 3 3 3 3 3 3 4 5 6 7 8 9 9 10 10 11 11 11 11 12 12 12 12 12
2 1 1 2 3 2 1 1 1 1 2 2 3 4 4 4 4 3 3 3 2 2 2 2 2 2 3 4 5 6 7 8 9 9 10 10 11 11 11 12 12 12 12 12
1 1 1 2 2 2 1 1 1 1 1 2 3 3 4 3 3 3 2 2 2 2 2 2 2 2 2 3 4 5 6 7 8 9 9 10 10 11 11 11 11 11 11 12
0 0 1 1 2 2 2 2 2 2 2 2 2 3 3 3 3 2 2 2 2 2 1 1 1 1 2 2 3 4 6 7 7 8 9 9 10 10 11 11 11 11 11 11
-0 -1 -0 1 2 1 1 2 2 2 2 2 2 3 3 3 3 2 2 1 1 1 1 1 1 1 1 2 3 4 5 6 7 7 8 9 9 10 11 11 11 11 11 11
-1 -1 -1 0 1 -0 3 3 2 2 2 2 2 2 3 2 2 2 1 1 1 1 1 0 0 1 1 2 2 3 4 5 6 7 7 8 9 9 10 10 10 11 11 11
-0 -1 -0 -0 0 1 3 3 2 1 1 2 2 2 2 2 2 2 2 1 1 0 0 0 0 1 1 2 2 3 4 5 6 6 7 8 8 9 9 10 10 10 10 10
-1 -1 -1 -1 -1 0 3 3 2 1 1 2 2 2 2 1 2 3 1 0 0 0 -0 0 0 1 1 2 2 3 4 4 5 6 7 7 8 8 9 9 10 10 10 10
-2 -2 -2 -1 -1 1 3 2 1 1 2 2 1 1 1 1 1 1 -0 -0 -0 -0 -0 -0 0 0 1 1 2 2 3 4 4 5 6 7 8 8 9 9 9 9 9 9
-1 -1 -2 -1 -1 0 2 1 1 2 2 1 1 1 0 0 -0 -0 -1 -1 -1 -1 -1 -0 -0 0 1 1 1 2 3 4 4 5 6 6 7 8 8 9 9 9 9 9
-0 0 1 0 1 3 1 1 1 0 0 0 0 -0 -0 -1 -1 -1 -1 -1 -1 -1 -1 -1 -0 0 1 1 1 2 2 3 4 4 5 6 7 7 8 8 8 8 8 9
0 -0 -1 -1 1 1 0 0 -0 -0 -0 -1 -1 -1 -1 -1 -1 -1 -1 -1 -1 -1 -1 -1 -1 -0 0 1 1 2 2 3 3 4 4 5 6 6 7 7 8 8 8 8
1 -1 -1 -1 1 1 0 -0 -0 -1 -1 -1 -2 -2 -2 -2 -2 -2 -2 -2 -2 -2 -1 -1 -1 -1 -0 0 1 2 2 3 3 3 4 4 5 6 6 7 7 7 8 8
0 -0 -1 0 1 0 1 -0 -1 -1 -2 -2 -2 -2 -2 -3 -3 -2 -2 -2 -2 -2 -2 -2 -2 -1 -1 -0 1 1 2 2 2 3 3 4 4 5 5 6 6 7 7 8

GEFSCGP_850_meantemp_168.txt.gz
Temperature
9 7 6 7 8 7 7 6 6 7 9 8 8 8 9 10 10 9 10 9 10 10 10 11 11 11 11 11 11 11 11 11 12 12 12 13 13 13 13 13 13 13 13 13
8 7 8 9 8 7 7 6 6 7 9 8 7 8 8 9 9 9 9 9 9 9 9 10 10 10 10 10 10 10 11 11 11 12 12 12 13 13 13 13 13 13 13 13
7 8 9 8 7 6 6 6 6 6 7 7 7 7 8 9 9 9 9 8 8 8 9 9 9 9 9 10 10 10 10 11 11 11 12 12 12 12 12 13 13 13 13 13
7 8 8 7 6 6 5 7 7 6 5 5 6 5 7 8 8 8 8 8 7 7 7 8 8 8 9 9 9 9 10 10 11 11 11 12 12 12 12 12 13 12 12 13
6 7 7 6 7 7 6 7 6 6 5 4 5 5 6 7 7 7 7 7 7 6 6 7 7 8 8 8 9 9 9 10 11 11 11 12 12 12 12 12 12 12 12 12
7 8 8 7 7 7 7 6 6 6 5 4 6 6 5 6 6 6 6 6 6 6 6 6 7 7 7 8 8 9 9 10 10 10 11 11 12 12 12 12 12 12 12 12
6 8 8 7 6 6 6 3 3 3 3 4 7 6 5 6 6 6 6 6 6 5 5 6 6 6 7 7 7 8 8 9 10 10 10 11 11 11 12 12 12 11 11 12
4 5 7 6 5 5 4 4 2 2 3 5 6 6 6 7 7 7 6 6 5 5 5 5 5 5 6 6 6 7 8 8 9 10 10 11 11 11 11 11 12 11 12 12
3 4 7 7 6 5 4 4 4 3 2 3 5 6 6 7 6 6 5 5 5 5 5 4 4 5 5 6 6 6 7 8 9 9 10 10 10 11 11 11 11 11 12 12
3 2 4 6 6 5 5 4 3 2 2 2 4 4 4 5 5 5 5 4 4 4 4 4 4 4 4 5 5 6 7 7 8 9 9 10 10 10 11 11 11 11 11 12
3 1 3 4 4 3 4 3 3 2 2 2 2 3 5 4 4 4 4 4 4 4 3 4 4 4 4 4 5 5 6 7 7 8 9 9 10 10 10 11 11 11 11 12
3 2 1 3 5 5 4 3 2 1 1 2 2 3 6 5 5 4 4 4 4 4 3 3 3 3 3 4 4 5 6 6 7 8 8 9 9 10 10 11 11 11 11 12
2 1 0 2 3 3 2 2 2 1 1 1 1 3 5 5 4 5 4 4 4 3 3 3 3 3 3 3 3 4 5 6 6 7 8 8 9 9 10 10 11 11 11 11
3 1 0 1 2 2 1 1 2 1 0 1 1 2 4 4 4 4 4 4 3 3 3 2 2 2 2 2 3 3 4 5 6 7 7 8 8 9 9 10 10 10 11 11
2 0 1 2 3 3 2 2 2 1 1 0 1 2 3 3 3 3 4 3 3 3 2 2 2 2 2 2 2 3 4 5 5 6 7 7 8 8 9 9 10 10 10 11
1 0 1 1 3 3 3 3 2 2 2 2 2 2 4 4 4 3 3 3 3 2 2 2 2 1 1 1 2 2 3 4 5 5 6 6 7 8 8 9 9 10 10 10
0 -0 -0 0 2 2 1 2 3 2 3 2 2 2 3 3 3 3 3 3 2 2 2 2 1 1 1 1 1 2 2 4 4 5 5 6 6 7 8 8 9 9 9 10
0 -0 -0 -0 0 -1 2 4 4 3 3 3 3 3 3 3 3 3 3 2 2 2 1 1 1 1 1 1 1 2 2 3 4 4 5 5 6 7 7 8 8 9 9 9
1 -0 -0 -1 -1 0 2 4 3 2 1 2 2 2 3 3 3 3 3 2 2 1 1 1 1 1 1 1 1 2 2 3 3 4 4 5 5 6 7 7 8 8 9 9
1 0 -1 -1 -1 -0 2 4 3 2 -0 2 2 2 2 2 -0 1 2 2 1 1 1 0 1 1 1 1 1 1 2 2 3 3 4 5 5 6 6 7 7 8 8 8
-1 -1 -1 -1 -1 0 3 3 3 -0 -0 3 3 2 2 1 1 2 1 1 1 0 0 0 0 0 0 0 1 1 1 2 2 3 4 4 5 5 6 6 7 7 8 8
-1 -1 -1 -1 -1 -0 3 2 1 1 3 3 2 2 2 2 1 1 1 1 0 0 -0 -0 -0 0 0 0 0 1 1 1 2 3 3 4 4 5 6 6 7 7 7 8
0 -0 -0 -0 0 2 4 3 3 3 2 2 2 2 1 1 1 0 0 0 -0 -0 -0 -0 -0 -0 -0 -0 -0 0 1 1 2 2 3 3 4 5 5 6 6 7 7 7
1 1 0 -0 1 2 3 3 3 2 2 2 1 1 1 0 0 -0 -0 -1 -1 -1 -1 -1 -1 -1 -1 -0 -0 -0 0 1 1 2 2 3 3 4 5 5 6 6 6 7
1 1 -0 -1 0 1 2 2 2 2 1 1 1 0 0 -0 -1 -1 -1 -1 -1 -1 -1 -1 -1 -1 -1 -1 -1 -0 -0 0 1 1 2 2 3 3 4 5 5 6 6 7
1 1 -0 -0 1 0 1 2 2 1 1 0 -0 -0 -1 -1 -1 -1 -1 -1 -2 -2 -2 -2 -2 -2 -1 -1 -1 -1 -1 -0 0 1 1 2 2 3 3 4 5 5 6 6